Regional Weather Roundup
Issued by NWS

Home | Current Version | Previous Version | Text Only | Print | Product List | Glossary On
Versions: 1 2 3 4 5 6 7 8 9 10 11 12 13 14 15 16 17 18 19 20 21 22 23 24 25 26 27 28 29 30 31 32 33 34 35 36 37 38 39 40 41 42 43 44 45 46 47 48 49 50
129
ASUS43 KTOP 251208
RWRKS

WEATHER ROUNDUP FOR KANSAS
NATIONAL WEATHER SERVICE GOODLAND KS
700 AM CDT MON SEP 25 2017

NOTE:  "FAIR" INDICATES FEW OR NO CLOUDS BELOW 12,000 FEET WITH NO
SIGNIFICANT WEATHER AND/OR OBSTRUCTIONS TO VISIBILITY.

KSZ001>006-013>018-027>032-041>047-251300-
NORTHWEST KANSAS

CITY           SKY/WX    TMP DP  RH WIND       PRES   REMARKS
GOODLAND       CLOUDY    49  48  97 N12G22    30.03R FOG
6HR MIN TEMP:  48; 6HR MAX TEMP:  53; 6HR PCP:  0.02;

HAYS           CLOUDY    62  61  96 NE14      29.91S THUNDER FOG
HILL CITY      CLOUDY    55  55 100 N12       29.97R
6HR MIN TEMP:  55; 6HR MAX TEMP:  59; 6HR PCP:  0.16;

RUSSELL        LGT RAIN  64  63  96 N5        29.90R
6HR MIN TEMP:  64; 6HR MAX TEMP:  73;

$$

KSZ061>065-074>080-084>089-251300-
SOUTHWEST KANSAS

CITY           SKY/WX    TMP DP  RH WIND       PRES   REMARKS
DODGE CITY     TSTM      67  65  93 SE6       29.88S
6HR MIN TEMP:  67; 6HR MAX TEMP:  69; 6HR PCP:  0.25;

ELKHART          N/A     56  57 100 NW13        N/A
GARDEN CITY    CLOUDY    59  57  93 NW16      29.93R
6HR MIN TEMP:  59; 6HR MAX TEMP:  67; 6HR PCP:  1.32;

GREAT BEND     LGT RAIN  70  64  83 S10       29.89R
LIBERAL        LGT RAIN  61  59  93 NW12G25   29.92R
PRATT          TSTM      68  61  79 SE21G32   29.90R
6HR MIN TEMP:  67; 6HR MAX TEMP:  73; 6HR PCP:  0.15;

$$

KSZ066>073-081>083-090>101-251300-
SOUTHEAST KANSAS

CITY           SKY/WX    TMP DP  RH WIND       PRES   REMARKS
CHANUTE        CLEAR     68  64  87 SE7       29.94R
6HR MIN TEMP:  67; 6HR MAX TEMP:  72;

COFFEYVILLE    PTCLDY    67  64  90 SE5       29.93R
6HR MIN TEMP:  67; 6HR MAX TEMP:  73; 6HR PCP: TRACE;

HUTCHINSON     PTCLDY    69  65  86 SE8       29.88R
6HR MIN TEMP:  69; 6HR MAX TEMP:  75; 6HR PCP: TRACE;

MEDICINE LODGE   N/A     70  62  76 S10       29.89R
NEWTON         CLEAR     67  64  90 SE8       29.92R
PARSONS        CLEAR     67  64  90 SE3       29.95R
6HR MIN TEMP:  66; 6HR MAX TEMP:  73;

WICHITA INTL   MOCLDY    69  66  90 S9        29.90R
6HR MIN TEMP:  68; 6HR MAX TEMP:  73;

WICHITA JABRA  CLOUDY    70  66  87 S8        29.90R
6HR MIN TEMP:  69; 6HR MAX TEMP:  72;

WICHITA MCCONL CLOUDY    71  64  77 S9        29.90R
WINFIELD       CLOUDY    72  66  81 SE9       29.92R
6HR MIN TEMP:  71; 6HR MAX TEMP:  74;

$$

KSZ007>012-019>026-033>040-048>060-102>105-251300-
NORTHEAST KANSAS

CITY           SKY/WX    TMP DP  RH WIND       PRES   REMARKS
CONCORDIA      LGT RAIN  62  62 100 NE9       29.91F
6HR MIN TEMP:  62; 6HR MAX TEMP:  66; 6HR PCP:  0.48;

EMPORIA        CLEAR     68  64  87 S12       29.92R
6HR MIN TEMP:  67; 6HR MAX TEMP:  71;

LAWRENCE       PTCLDY    66  65  96 E5        29.93R
6HR MIN TEMP:  66; 6HR MAX TEMP:  72;

MANHATTAN      PTCLDY    72  65  78 S5        29.90R
6HR MIN TEMP:  71; 6HR MAX TEMP:  76;

MARYSVILLE     FOG       64  64 100 N8        29.92S VSB 1/2
OLATHE IND     CLEAR     67  64  90 S6        29.95R
6HR MIN TEMP:  66; 6HR MAX TEMP:  72;

OLATHE EXE     CLEAR     65  65 100 SE6       29.95R
6HR MIN TEMP:  65; 6HR MAX TEMP:  70;

SALINA         CLOUDY    72  65  78 S6        29.88R
6HR MIN TEMP:  71; 6HR MAX TEMP:  73; 6HR PCP: TRACE;

TOPEKA BILLARD CLEAR     68  67  96 E6        29.92R
6HR MIN TEMP:  68; 6HR MAX TEMP:  75;

TOPEKA FORBES  CLEAR     70  66  87 S7        29.92R
6HR MIN TEMP:  68; 6HR MAX TEMP:  74;

$$




USA.gov is the U.S. government's official web portal to all federal, state and local government web resources and services.